Theta_e
297 298 299 301 300 300 300 301 301 301 302 302 300 301 304 306 300 297 309 311 305 306 307 312 319 324 324 318 322 323 323 321 327 328 325 325 327 333 333 338 342 341 340 341 340 342 343 343 344 344 343 344 346 347 347 348 346 348 351 352 352 352 352 352 356 358 359 359 359 359 358 359 359 359 358 359 360 359 360 358 358 358 358 358 359 359 360
297 298 299 301 299 299 299 300 301 302 302 302 302 302 304 304 306 305 312 312 306 307 308 310 314 320 322 323 323 321 320 316 324 324 326 321 323 326 332 336 337 342 342 342 343 342 342 343 344 343 344 345 345 345 345 346 347 347 352 354 353 352 352 354 357 357 358 359 359 360 359 359 360 359 358 359 358 359 359 359 359 359 360 359 359 359 359
295 298 299 300 300 299 298 300 301 301 302 302 303 303 304 305 304 304 306 308 307 311 316 313 317 324 316 315 315 315 321 322 317 320 322 326 327 326 332 337 338 341 343 343 344 344 343 342 344 343 343 346 345 343 344 344 347 348 350 351 353 352 353 356 356 358 358 358 359 358 358 359 359 359 359 359 359 359 359 359 359 360 360 359 358 359 359
293 297 297 297 299 299 298 299 300 300 300 300 302 301 303 303 303 305 304 305 304 312 316 317 320 317 315 316 320 322 324 322 324 324 323 325 329 330 329 332 335 338 339 341 342 342 340 342 344 345 344 346 345 343 344 345 345 347 349 351 351 354 354 355 357 357 357 358 358 357 358 358 359 359 359 359 359 359 359 359 360 360 359 359 360 359 358
292 296 297 296 297 298 295 296 299 302 303 303 304 305 306 305 305 303 302 302 310 313 318 314 315 314 317 319 318 321 322 331 326 328 330 329 329 330 331 331 334 333 335 338 342 341 341 342 342 343 345 344 346 346 347 347 349 347 348 348 352 354 356 356 357 357 358 358 357 357 358 358 359 360 359 359 359 359 358 360 360 360 360 359 359 360 359
291 294 296 296 294 288 291 304 304 305 302 302 301 302 304 306 306 305 308 309 313 315 316 314 314 314 316 318 325 327 328 334 340 336 335 334 336 336 335 332 330 333 337 337 339 341 344 342 340 342 345 345 347 348 347 351 349 349 349 349 351 353 356 356 357 358 358 357 357 357 358 358 359 359 358 358 358 358 358 359 359 359 359 359 360 360 359
290 294 295 292 287 290 302 304 307 307 307 306 304 304 305 306 307 307 307 309 312 317 314 315 317 318 325 329 329 327 335 339 339 340 340 343 343 344 344 343 340 337 339 341 342 343 341 340 342 343 344 344 347 347 349 349 350 350 351 351 351 354 355 357 358 357 358 358 358 358 359 359 359 358 357 358 358 357 357 358 359 359 358 358 359 358 358
293 291 292 285 288 299 301 303 312 318 310 313 306 303 306 307 307 309 307 310 312 317 315 314 318 330 333 335 338 339 338 339 340 338 339 341 341 342 344 344 345 347 342 339 339 341 343 342 341 342 342 343 343 344 347 347 349 352 353 353 353 355 355 356 356 358 357 358 358 359 359 358 358 357 358 358 358 359 358 358 360 360 360 359 359 359 358
288 291 291 291 299 296 299 301 312 314 310 312 311 301 305 309 310 309 310 311 312 313 314 315 324 327 330 329 333 337 339 338 339 338 339 339 341 340 341 342 344 347 349 345 340 344 345 343 342 342 343 343 343 344 344 345 350 348 350 352 353 355 354 355 355 356 357 357 357 358 358 358 357 357 357 358 359 360 358 358 358 358 359 358 360 359 357
293 289 288 290 291 288 296 312 315 318 318 318 316 310 306 313 313 312 311 312 313 314 313 314 324 328 319 316 323 334 338 339 338 338 339 340 340 340 340 342 344 348 350 349 343 341 342 343 343 345 345 344 347 348 345 346 345 346 349 351 354 355 354 355 356 357 358 358 357 357 358 357 357 357 358 360 360 360 358 357 355 357 358 359 360 360 357
291 290 287 288 287 292 308 310 313 316 318 318 318 308 302 315 316 316 312 310 313 315 315 322 327 320 311 313 320 337 338 338 339 339 339 339 339 341 341 341 342 344 348 348 342 342 344 343 347 351 348 345 345 347 348 344 345 347 350 353 353 353 354 356 357 357 358 358 358 357 357 357 357 358 358 359 360 361 358 358 358 359 359 358 359 360 360
289 290 288 287 293 293 301 312 314 316 320 315 311 297 300 313 320 323 325 314 313 315 320 327 324 316 310 312 324 337 339 338 337 338 338 338 338 340 342 343 344 346 350 353 351 347 347 353 350 352 348 347 346 349 348 347 347 350 352 351 355 358 357 359 359 359 358 359 359 357 357 358 358 358 360 359 360 359 358 358 358 358 358 358 358 359 359
289 289 289 292 294 301 305 310 315 317 320 314 301 294 310 317 319 323 327 325 324 322 323 326 321 324 329 331 337 337 337 335 335 337 338 338 338 339 341 342 345 346 347 346 345 346 349 352 351 349 348 350 351 352 353 351 351 352 356 357 357 357 359 357 358 358 358 358 357 357 358 359 359 359 360 359 359 359 357 357 358 357 357 358 357 358 359
288 289 288 289 295 304 314 315 316 318 308 299 300 313 316 319 320 323 327 328 329 326 324 326 325 333 330 335 336 336 336 335 335 336 336 338 339 341 342 342 343 344 344 344 344 344 346 349 351 351 352 353 352 354 353 352 354 355 356 358 358 358 357 357 356 356 357 359 360 359 360 361 360 359 360 360 360 361 359 359 358 357 357 358 357 356 357
291 291 289 288 285 307 313 315 313 316 304 309 315 316 320 321 322 324 327 329 330 328 322 331 333 332 333 334 335 334 334 333 333 334 336 337 337 339 341 341 341 342 341 340 340 342 345 347 351 353 350 352 352 352 355 355 357 356 355 356 358 358 358 358 358 358 360 360 359 360 361 362 361 359 361 361 361 362 360 359 358 357 357 357 357 356 356
287 288 286 288 298 313 316 314 308 316 317 318 318 317 316 321 322 325 326 328 330 329 327 330 332 333 332 332 331 332 333 333 334 335 336 337 338 339 340 341 341 341 340 339 339 341 343 346 349 353 356 353 353 351 348 351 356 361 360 354 357 357 357 357 357 358 359 359 360 361 362 362 361 360 360 360 360 361 360 359 357 355 356 356 355 354 353
294 291 296 313 315 317 318 318 318 318 318 318 317 318 318 319 323 329 327 328 330 331 332 332 331 330 331 331 332 331 331 332 333 333 334 336 337 338 339 339 341 340 338 338 338 339 342 343 345 348 351 349 347 346 346 352 356 360 361 359 355 354 354 355 357 356 357 358 359 361 361 362 360 360 361 362 359 361 360 358 357 355 355 355 355 353 353
304 307 309 315 317 316 317 318 318 316 316 317 317 317 318 320 322 327 327 328 329 330 333 330 329 329 330 330 331 331 332 332 333 334 335 335 336 337 338 339 339 339 340 339 338 338 339 342 343 344 345 346 343 343 349 352 355 357 360 360 358 355 355 355 355 355 355 355 357 359 360 361 361 362 361 360 358 360 359 357 356 356 355 354 353 354 353
297 294 314 313 314 316 316 316 317 318 318 317 317 317 316 319 322 325 329 331 330 330 331 330 328 328 330 329 330 331 331 332 332 332 332 333 335 336 336 338 339 339 339 338 337 337 337 340 342 342 343 343 344 345 347 350 354 357 358 359 358 358 358 356 356 355 355 352 353 356 359 359 360 360 360 360 360 358 358 357 356 355 354 354 354 353 352
296 298 307 314 315 317 318 318 317 316 317 317 317 317 318 321 324 324 325 328 329 330 328 329 329 328 329 328 329 330 331 331 332 332 333 333 334 336 337 338 338 339 339 338 337 337 337 339 341 342 342 342 343 344 345 347 350 351 351 352 353 355 356 358 358 358 357 352 351 353 354 355 354 356 358 359 358 357 357 357 356 355 355 353 353 353 353
296 299 302 312 314 315 315 317 318 318 318 318 317 317 318 320 322 323 325 326 327 327 327 328 328 328 329 330 330 330 331 331 332 333 333 334 335 336 336 337 338 338 338 337 337 337 337 339 341 341 341 342 343 343 344 347 348 347 346 348 349 350 352 352 351 352 355 356 356 355 355 357 356 356 354 354 356 357 360 361 361 358 356 355 355 356 355
292 295 303 313 306 307 311 315 316 318 319 318 317 317 317 318 319 321 321 321 323 325 328 330 329 328 328 330 331 330 330 331 332 333 334 334 334 336 337 338 337 337 337 337 337 337 337 339 339 339 340 340 341 342 343 344 345 345 346 346 346 345 345 345 345 347 348 349 350 349 350 350 351 352 344 327 339 353 355 338 329 327 329 354 359 359 357
293 303 309 314 315 314 313 314 316 318 320 319 317 315 316 317 318 319 319 319 320 321 322 326 330 328 328 329 330 330 330 332 333 334 334 333 333 334 336 335 335 335 337 338 337 337 337 339 339 340 340 341 341 342 342 343 343 343 343 342 341 340 339 338 336 339 339 339 340 342 342 343 345 344 346 349 320 313 318 323 323 316 311 313 320 329 350
304 307 310 313 315 312 312 315 316 317 319 319 317 317 317 318 318 318 317 318 319 319 321 323 327 327 327 328 329 328 329 330 330 330 331 332 333 333 334 334 334 334 335 335 335 335 337 338 338 339 339 340 341 341 343 343 343 342 342 341 339 339 339 339 338 339 340 339 339 340 340 342 343 342 342 342 345 325 315 315 314 310 308 307 306 307 314
301 308 311 314 315 315 315 317 317 318 320 319 317 317 317 317 318 319 317 317 318 320 320 320 321 322 323 325 326 326 326 327 328 329 329 329 330 330 332 333 333 333 334 335 335 336 336 337 338 338 338 339 340 340 341 341 341 340 340 339 338 338 338 339 339 338 339 339 339 340 340 341 339 341 339 338 336 336 335 313 307 306 303 301 300 302 305
309 310 312 314 316 315 317 317 316 317 318 318 316 316 318 319 318 319 318 317 316 318 319 321 320 320 320 320 321 322 323 324 327 330 330 329 329 329 329 331 332 334 334 335 336 336 337 337 337 337 337 338 340 341 343 342 341 340 340 340 341 339 338 338 337 337 337 338 338 338 339 340 339 338 337 337 336 333 331 331 331 317 308 305 304 302 302
311 312 313 312 312 314 318 315 312 317 316 316 315 315 316 317 318 318 319 318 317 318 318 319 320 321 321 321 322 324 324 326 327 327 328 329 329 329 331 333 334 334 334 335 335 337 337 337 336 336 336 338 341 342 343 343 342 340 339 340 340 339 338 338 339 338 338 338 338 338 338 337 337 338 340 340 338 335 332 328 325 322 325 326 312 301 310
308 312 316 310 310 312 315 317 317 317 316 314 314 314 316 318 318 317 317 317 317 317 318 319 320 320 319 320 320 320 322 323 323 325 326 328 329 331 333 334 335 336 335 335 335 336 336 337 336 336 336 339 342 342 342 342 341 339 339 339 338 338 338 338 338 338 337 336 336 336 336 337 337 338 339 339 337 335 330 331 328 324 323 324 321 310 303
312 315 317 316 317 317 318 319 318 315 314 315 315 314 314 314 314 316 315 316 317 317 317 318 319 319 318 319 320 320 321 322 323 323 324 326 328 330 332 333 334 335 335 336 336 337 336 335 335 334 335 339 342 342 342 341 340 338 337 337 336 336 336 336 336 336 336 335 334 333 331 333 335 338 337 337 335 334 333 331 327 323 319 317 317 315 309
313 316 317 316 316 317 316 314 314 314 315 315 315 314 313 313 313 314 315 316 316 316 317 318 318 318 320 320 320 321 322 323 323 325 326 327 329 331 332 333 332 332 333 333 334 336 336 335 334 333 335 339 340 341 342 341 340 339 338 336 335 335 335 336 337 337 336 335 334 331 333 333 333 333 333 332 332 332 331 329 325 323 320 316 314 313 311
313 315 315 316 317 317 315 313 315 316 317 317 316 314 313 313 313 314 315 316 317 318 319 319 318 319 319 320 322 322 323 324 325 325 324 326 327 329 330 330 327 326 327 329 332 334 335 335 335 335 338 340 341 341 341 340 340 339 339 338 337 326 323 327 330 337 337 335 334 334 333 332 331 330 329 329 329 329 328 326 323 322 319 318 317 316 317
313 313 314 315 315 315 315 315 314 315 316 318 315 313 312 312 313 315 316 316 317 318 319 319 319 319 321 322 323 323 323 323 323 323 324 325 326 328 329 329 328 329 329 330 331 332 334 334 334 337 340 341 341 341 341 341 341 340 337 338 339 339 333 327 336 335 336 337 335 334 332 331 331 330 329 328 327 327 326 324 320 319 318 316 316 315 317
310 310 310 311 312 313 312 314 314 315 316 316 316 316 316 318 318 317 317 318 319 319 319 319 320 321 322 322 322 322 322 322 322 322 322 323 325 327 328 329 330 329 329 330 331 333 333 334 336 338 340 341 340 340 340 340 341 340 341 341 340 340 338 332 331 337 338 335 335 333 332 331 330 329 327 327 326 327 326 323 320 318 316 316 315 315 313
312 312 312 314 313 310 310 312 315 315 317 318 318 317 317 318 318 318 319 319 319 319 319 319 320 320 319 319 320 320 321 320 319 319 321 322 324 326 328 329 330 330 330 331 331 331 333 334 338 339 340 340 340 339 340 340 341 341 341 341 340 339 338 338 336 336 335 334 335 334 333 332 330 330 329 327 326 324 322 321 319 318 318 317 317 317 310
317 317 317 316 316 316 316 315 315 315 316 316 317 318 318 318 319 319 320 319 317 318 320 320 318 318 318 317 317 317 317 317 318 318 320 321 323 325 327 328 328 328 328 329 331 330 333 335 337 338 339 339 339 338 339 340 339 341 341 341 339 337 338 337 336 334 333 333 335 334 334 332 331 329 328 328 326 324 321 320 319 319 319 318 318 318 316
317 316 317 317 317 317 317 317 317 318 317 317 317 317 318 319 319 319 318 318 320 319 318 318 317 317 316 317 316 316 316 317 318 319 321 322 325 327 327 326 327 326 326 327 330 332 332 333 335 335 337 338 337 339 339 338 338 338 340 339 337 337 336 336 337 335 334 333 332 332 332 331 332 330 331 331 329 326 323 320 319 318 317 317 317 318 319
315 314 315 315 316 316 316 316 317 317 317 317 317 317 317 318 318 319 320 319 319 319 319 318 317 316 316 317 317 318 318 318 319 320 321 323 324 324 323 324 324 324 324 324 328 331 331 331 334 334 334 334 335 337 337 336 336 337 337 335 335 335 335 335 335 335 334 333 332 332 331 332 333 332 332 332 332 331 328 324 320 319 319 318 320 320 321
312 313 313 314 314 315 315 316 317 317 316 316 316 317 317 317 318 318 318 318 318 317 317 316 316 317 318 318 318 318 318 319 319 319 321 322 322 321 320 320 320 322 322 323 329 331 331 331 332 333 333 332 333 333 334 334 335 334 334 333 334 335 333 332 332 332 332 333 332 333 331 331 331 331 331 331 331 331 329 327 326 324 322 321 321 320 322
310 312 312 313 313 313 314 315 316 316 316 315 314 315 316 316 316 316 315 314 315 315 314 314 315 316 316 316 316 317 318 318 319 319 320 322 322 320 319 320 321 322 324 328 328 329 330 330 330 330 330 329 330 329 332 333 333 332 332 333 332 332 330 330 330 330 330 331 330 330 330 329 330 329 329 328 328 329 327 325 325 324 322 322 321 321 322
308 309 310 312 312 312 312 313 313 314 315 315 313 312 314 314 314 313 313 312 313 315 314 314 314 313 314 314 314 315 317 318 319 320 320 321 321 320 319 320 323 325 326 327 327 327 327 328 328 327 327 327 327 328 329 330 330 330 330 329 329 329 329 329 328 327 327 327 326 326 328 328 328 327 326 326 326 325 326 326 326 327 325 324 322 321 321
308 308 309 309 310 311 311 310 310 311 312 312 312 312 312 311 311 310 310 311 313 314 314 313 313 313 313 313 313 314 316 318 318 318 319 319 318 317 315 315 321 324 324 324 325 325 324 324 324 324 324 324 324 326 326 327 328 328 328 327 326 326 325 325 324 324 324 324 324 324 324 325 326 326 325 325 324 324 325 323 324 325 328 324 322 322 321
308 308 308 308 308 309 309 309 309 309 309 310 312 311 311 311 309 308 309 309 310 311 312 313 315 313 313 313 313 314 314 315 317 317 317 316 316 315 314 316 321 322 324 324 323 323 322 321 321 322 322 322 323 323 323 323 323 324 325 325 325 324 324 323 323 323 323 323 322 322 322 322 323 323 324 324 324 323 323 322 322 321 321 322 322 322 321
308 307 307 307 308 308 308 308 307 307 307 307 308 309 310 310 309 309 309 309 309 309 309 309 311 312 311 311 311 312 313 315 316 316 316 317 318 319 317 318 321 322 323 322 321 320 319 319 319 320 321 320 320 321 320 319 319 319 319 319 320 320 320 320 320 320 320 320 321 321 321 321 320 320 320 321 322 322 323 322 321 320 319 321 322 322 322
308 309 309 308 307 307 307 307 306 306 305 305 306 307 307 307 308 308 308 308 308 308 308 308 308 308 308 308 308 308 309 311 313 314 313 313 315 318 320 319 320 321 322 320 319 318 317 318 318 318 319 320 319 318 317 316 316 316 316 316 316 316 316 315 315 315 315 315 315 316 316 316 317 319 320 320 320 321 320 320 320 320 320 320 319 319 319
307 307 307 306 307 306 305 305 305 304 304 305 305 305 305 305 305 306 306 306 306 306 307 306 307 307 307 306 306 306 307 308 309 312 312 310 310 312 318 320 318 319 319 319 318 317 316 316 316 318 317 316 316 317 315 315 315 314 314 314 314 314 314 313 313 313 313 313 313 313 313 313 314 315 316 315 315 316 316 317 318 319 319 318 317 317 318
306 306 307 308 305 305 306 306 307 307 306 304 303 304 305 305 305 305 305 305 305 305 305 305 305 305 306 307 308 308 308 308 309 310 312 312 312 314 317 318 318 318 318 317 316 315 315 316 315 314 314 315 315 313 313 313 313 313 312 312 312 313 312 312 312 312 312 311 311 311 311 311 311 311 311 311 311 312 311 312 313 313 314 316 316 316 317
305 305 305 306 306 306 307 307 307 305 304 303 302 301 303 303 303 303 304 304 304 304 305 305 305 306 306 307 307 308 307 307 307 309 311 312 315 315 316 316 317 317 315 313 313 313 313 312 313 312 312 313 313 311 311 311 311 311 311 311 310 311 311 311 311 311 311 311 310 310 310 310 309 308 308 308 307 307 308 308 308 308 308 309 309 309 309
305 305 305 306 306 306 306 305 304 302 302 301 301 302 302 303 303 303 303 303 303 303 304 304 305 306 307 307 308 308 308 308 305 305 309 309 311 312 313 313 314 315 313 313 312 312 313 312 311 311 311 311 309 309 309 309 309 309 309 309 309 309 309 309 309 310 309 309 309 310 309 309 308 308 306 305 305 305 305 305 305 305 306 306 305 305 304
306 306 306 306 306 306 306 305 305 304 303 304 304 303 303 302 302 302 302 302 303 303 303 303 303 304 305 307 307 307 308 309 307 305 307 308 308 309 310 311 312 312 312 311 310 309 310 309 309 309 309 309 307 308 307 307 308 308 308 307 307 307 308 307 308 308 308 307 307 307 307 307 307 307 306 305 304 304 302 301 301 302 303 304 303 303 303
306 306 306 306 305 305 305 304 303 304 305 305 304 304 304 302 300 299 301 301 302 303 302 303 303 304 304 304 305 306 307 308 308 308 307 307 307 308 308 308 309 310 310 309 310 310 311 309 308 309 308 307 306 306 307 306 306 307 307 307 306 305 305 305 304 304 306 306 305 305 305 305 305 305 305 305 304 303 302 301 300 300 301 301 302 302 302
305 305 305 306 306 306 305 305 304 304 304 303 303 304 303 302 301 301 300 301 301 302 301 302 302 303 304 303 304 304 306 306 307 307 306 306 306 307 307 306 306 307 307 307 307 307 308 309 308 307 306 306 305 305 305 306 305 305 305 305 305 305 304 303 303 303 303 303 303 303 303 303 303 303 303 302 302 302 302 302 301 300 299 299 299 300 300
305 306 306 305 304 304 305 305 305 305 305 304 303 302 302 300 300 299 300 301 300 299 300 300 300 302 303 303 303 303 304 304 305 305 305 305 304 304 305 305 305 305 305 305 306 306 306 307 307 307 307 305 305 304 304 304 304 304 304 305 303 303 303 303 303 302 302 302 301 301 301 301 301 300 300 300 300 300 300 300 300 300 299 299 299 299 298
Wind_Speed
7 8 11 8 6 7 8 11 10 13 18 21 25 22 11 12 14 17 5 9 10 12 13 5 7 7 8 10 10 8 4 1 3 2 3 6 8 6 8 10 10 11 12 14 15 14 15 15 16 17 16 16 16 14 14 14 17 18 16 15 16 17 17 18 17 16 15 15 15 16 16 16 16 17 16 16 15 15 15 16 15 17 17 16 15 15 15
7 8 9 8 5 6 9 12 13 14 14 18 20 19 20 16 12 15 6 11 14 14 15 15 10 6 6 3 5 3 4 4 6 6 6 7 8 8 9 10 12 12 13 13 13 14 14 15 16 16 15 16 17 17 17 17 17 17 14 14 15 17 18 17 14 14 14 14 15 16 16 16 16 16 16 16 16 16 16 16 15 15 16 16 16 16 16
6 7 5 6 7 8 12 11 13 13 13 13 13 15 19 18 19 22 10 9 13 10 9 14 11 6 1 3 7 9 6 4 4 4 6 5 5 7 8 8 10 11 11 11 11 13 14 17 18 17 17 18 16 19 17 19 17 17 16 16 16 18 17 15 13 13 13 14 14 16 17 16 16 17 17 16 16 16 16 16 17 15 15 17 16 15 16
4 1 3 9 12 12 12 14 16 16 14 14 12 13 12 14 14 13 17 12 13 5 5 6 3 4 6 8 9 8 8 5 2 5 7 7 7 5 5 7 7 9 11 11 13 15 17 17 16 15 16 15 15 17 17 18 18 17 17 16 18 16 16 14 14 15 15 15 15 16 16 17 17 17 16 16 16 16 16 17 16 15 15 16 15 15 14
5 3 3 9 13 10 14 19 19 15 14 14 10 11 11 16 12 14 15 15 5 7 6 8 9 11 12 12 8 7 9 7 6 7 6 7 7 7 5 7 8 10 12 13 14 15 14 14 15 18 16 15 16 17 16 17 13 16 17 18 16 16 13 14 15 14 14 15 16 16 17 17 16 15 17 17 17 16 18 16 14 16 16 16 16 16 16
4 9 6 8 5 11 12 3 1 11 19 17 16 15 14 13 15 13 7 10 8 11 8 11 11 13 14 13 11 5 7 6 5 6 5 5 6 6 6 7 9 9 9 10 12 15 14 16 19 16 14 14 13 12 13 11 14 16 17 16 16 15 14 14 15 15 15 16 17 17 16 16 16 16 17 18 18 17 15 15 16 16 17 18 16 17 17
4 7 9 6 11 12 6 10 3 2 7 10 18 22 18 17 15 15 15 14 11 8 11 14 14 15 7 2 4 6 5 4 4 5 4 4 4 5 6 6 7 7 9 10 11 11 14 16 13 11 12 13 10 10 10 13 14 15 15 16 16 14 14 14 14 15 16 17 17 16 15 16 16 17 18 17 17 16 15 16 17 17 17 19 19 20 20
6 5 5 7 11 6 15 9 7 8 1 6 7 15 20 21 18 14 16 13 12 8 11 15 11 5 4 4 3 3 3 4 4 4 4 3 3 4 5 7 8 8 9 10 11 11 10 10 12 13 13 13 13 13 13 13 12 12 11 11 11 10 12 13 15 15 16 16 15 14 15 15 16 17 17 17 17 15 15 15 15 15 15 16 18 18 18
7 5 9 14 11 17 15 9 6 6 5 6 4 6 7 10 12 14 12 13 14 8 10 8 2 3 4 3 4 4 4 5 4 4 3 3 3 4 6 7 8 9 9 10 10 7 8 11 12 13 11 13 12 12 14 13 12 13 12 12 12 12 14 15 16 16 15 15 15 15 15 16 17 18 18 17 16 14 15 16 16 17 17 17 16 18 20
8 9 10 10 7 10 3 8 3 1 4 4 5 3 7 6 9 10 13 14 13 11 7 6 5 6 5 8 7 7 6 6 6 4 3 2 2 3 5 6 6 7 8 7 8 8 10 11 12 11 12 13 12 11 13 13 15 15 14 14 13 14 15 16 17 16 15 15 16 16 16 18 20 18 18 15 16 15 17 17 17 18 17 15 16 17 21
8 10 11 10 9 6 4 4 4 6 4 4 3 3 9 2 4 11 16 18 15 14 11 10 10 7 9 10 8 8 9 7 5 5 3 1 1 3 4 6 7 7 7 5 5 6 7 9 9 10 12 14 14 13 14 15 15 15 15 15 15 17 17 16 15 15 14 13 13 15 16 18 17 17 16 16 14 12 15 16 17 15 15 16 16 16 18
12 10 10 12 6 6 5 2 4 8 5 1 4 7 6 6 10 11 9 14 17 13 11 13 12 12 9 10 5 10 9 8 6 5 4 3 3 4 5 6 5 5 6 6 8 6 4 2 3 9 11 12 13 12 12 12 13 14 15 15 13 11 10 10 10 11 12 14 15 16 17 16 16 16 15 14 15 16 17 15 14 14 15 16 19 16 17
13 13 11 9 9 6 11 8 6 7 6 3 8 11 2 6 12 11 10 12 13 5 10 11 10 10 1 3 10 11 10 9 6 4 3 3 2 4 6 6 6 7 9 10 9 8 6 4 1 6 9 9 9 8 8 9 10 7 2 2 3 4 5 7 8 9 10 13 16 16 15 13 12 12 12 14 14 13 15 14 13 13 17 16 18 18 16
13 12 12 11 8 2 2 7 5 3 2 7 9 4 8 11 13 12 12 13 11 8 7 10 8 5 7 10 9 11 9 8 7 6 5 4 5 6 7 8 8 9 10 11 11 11 9 6 4 2 5 7 7 7 7 8 5 3 3 5 7 8 10 11 13 15 15 14 14 13 12 11 12 13 12 13 13 13 13 13 16 19 18 15 17 18 17
10 10 11 8 11 5 4 4 4 4 6 2 5 11 12 8 12 14 13 11 10 6 9 3 3 9 10 10 10 10 10 8 7 7 6 6 7 7 8 10 10 9 10 11 12 10 9 9 6 4 6 6 6 6 6 5 5 2 1 5 7 8 9 10 11 12 12 13 12 10 11 12 12 14 12 12 13 12 13 14 17 18 17 17 16 16 17
10 10 13 8 3 7 5 4 5 3 4 6 6 7 12 10 9 11 11 11 9 7 6 6 4 6 10 11 11 11 9 8 7 7 7 7 8 8 9 9 9 10 10 10 10 11 10 10 10 8 8 9 8 8 7 3 3 2 2 3 5 7 8 9 9 10 10 11 11 11 11 10 12 13 12 13 13 13 15 14 15 18 16 16 17 18 18
9 7 5 1 6 6 5 4 5 3 2 2 2 5 8 10 9 9 8 10 8 5 6 8 8 7 5 10 11 11 10 9 8 8 8 8 8 8 9 10 10 10 10 11 11 11 11 11 11 11 9 11 11 10 5 4 4 3 2 2 4 6 7 8 8 8 9 9 10 11 10 11 12 12 13 12 13 13 14 16 17 18 19 17 18 19 18
11 15 13 6 5 6 6 4 2 1 0 1 2 4 5 7 9 7 6 7 5 4 6 9 8 8 9 10 10 11 10 10 9 8 9 9 8 8 9 10 10 10 10 10 11 12 11 11 11 11 10 11 12 8 6 6 5 5 4 3 3 2 4 5 6 7 8 9 9 9 10 10 11 11 12 12 13 12 12 15 17 19 18 18 16 17 17
7 6 5 8 6 9 8 6 4 2 3 4 3 4 5 6 8 6 6 4 1 3 6 7 9 10 10 11 10 10 10 9 9 9 10 10 9 9 10 9 10 9 9 10 11 12 11 10 10 10 10 10 9 8 8 7 6 6 6 6 5 4 3 2 1 2 5 6 7 7 9 9 10 10 11 11 12 12 14 18 18 17 18 16 14 18 19
8 8 9 8 6 4 7 6 6 3 4 5 5 5 5 5 4 5 7 4 2 4 7 8 9 9 9 10 10 10 10 10 10 9 10 10 11 9 9 10 10 11 11 11 11 11 11 9 9 10 10 10 9 8 8 7 7 7 8 7 6 6 5 3 2 1 1 1 2 4 5 7 8 9 10 11 13 16 16 17 17 17 16 16 17 20 18
10 15 17 11 7 5 6 6 5 4 4 5 7 7 6 5 4 6 8 8 3 3 7 9 10 9 10 10 11 11 11 10 10 10 10 10 11 10 11 10 11 10 11 12 12 12 11 10 10 11 11 10 9 9 8 6 6 7 7 6 6 6 5 5 4 3 2 1 2 3 3 4 5 6 8 9 11 13 16 15 15 17 18 20 20 22 22
10 9 9 13 8 6 5 6 6 7 7 9 10 9 9 6 6 6 7 7 7 6 5 9 9 10 10 11 11 12 11 11 12 12 12 13 14 14 12 12 14 15 14 14 14 13 12 10 11 11 11 11 9 9 8 7 6 6 6 5 6 6 5 5 4 4 4 3 4 3 3 4 4 5 5 6 8 9 11 12 15 19 18 19 19 19 19
11 11 10 10 7 4 5 5 6 8 8 11 13 10 9 7 7 7 8 8 8 8 10 8 9 9 9 11 11 12 11 10 10 10 11 12 13 13 13 14 15 14 14 15 16 15 13 11 11 11 11 10 10 9 9 8 8 8 7 8 8 7 7 6 6 6 5 5 4 4 2 1 1 3 4 5 10 13 15 17 18 19 19 23 25 25 20
19 18 16 12 8 4 9 7 9 12 11 13 14 11 9 8 7 7 9 10 9 8 9 11 10 10 8 7 8 10 11 11 11 12 11 12 12 11 11 13 14 15 15 15 16 15 12 12 12 11 12 12 11 11 10 9 9 9 9 8 8 7 7 6 6 5 5 5 4 3 1 1 2 2 3 4 5 9 15 17 18 18 18 19 20 22 26
15 13 11 12 9 8 11 11 12 14 14 14 13 11 10 8 7 8 9 9 10 9 8 9 9 9 10 9 8 9 10 11 11 13 14 13 13 13 13 13 14 14 14 13 12 13 13 13 13 13 13 13 12 12 12 11 11 11 12 11 10 9 8 7 7 8 7 7 6 4 3 3 3 3 4 5 7 9 5 8 12 15 12 12 15 19 23
15 14 12 12 8 12 13 14 14 14 15 14 12 11 10 9 9 10 11 11 10 10 8 7 9 10 10 9 7 7 9 11 13 13 14 14 14 14 14 14 13 12 12 13 13 13 13 14 13 13 13 12 12 11 10 9 10 10 10 10 10 8 7 7 7 7 6 5 5 4 4 4 4 4 3 3 3 4 7 9 3 2 7 14 14 15 18
11 12 11 11 13 10 6 9 11 10 16 16 13 12 10 8 9 10 10 10 11 10 8 7 5 9 9 9 9 8 10 13 15 15 15 16 16 14 13 13 14 14 14 13 13 13 13 13 13 13 13 12 10 10 9 9 9 10 10 9 8 10 13 9 7 7 6 5 4 3 4 4 4 4 4 4 3 4 5 7 8 8 9 8 9 12 13
10 11 11 12 10 12 12 16 14 14 16 16 13 11 10 8 8 9 11 12 12 10 8 8 6 8 12 9 7 7 9 12 13 14 15 16 14 14 15 15 15 15 14 14 12 11 12 12 12 13 13 11 10 10 10 10 10 10 10 10 9 8 8 9 8 7 7 6 6 6 6 5 4 4 5 6 7 8 7 6 6 7 8 8 11 10 16
8 8 9 9 7 15 17 14 14 18 18 12 13 14 11 11 9 12 13 11 9 10 8 7 7 8 10 9 8 7 7 9 12 14 12 9 9 9 9 11 11 14 16 15 14 13 13 13 13 13 12 11 10 11 10 10 10 10 9 9 8 7 7 7 7 6 6 6 6 6 6 6 6 6 7 7 8 9 8 8 7 8 9 9 6 3 7
10 8 8 9 11 13 14 13 16 16 14 12 12 11 13 11 8 9 10 10 8 9 7 6 8 9 7 9 9 6 6 8 12 14 15 14 12 11 10 8 12 13 14 16 14 13 14 14 13 13 11 10 10 10 10 9 9 9 9 9 8 7 5 5 5 5 5 5 5 6 6 6 7 7 7 8 8 8 7 8 10 10 10 9 9 11 11
7 10 14 13 14 12 14 16 16 17 13 7 11 15 13 10 9 10 9 7 8 9 8 9 10 10 12 10 8 7 8 9 10 14 15 14 12 12 12 13 14 13 13 13 13 13 13 13 13 12 9 8 8 8 8 9 8 8 8 7 7 6 6 5 6 5 5 6 5 6 6 6 7 8 8 8 8 8 8 8 8 8 8 9 9 10 13
12 9 13 12 11 15 12 9 13 15 12 6 6 11 15 13 11 9 9 7 8 9 9 9 11 11 9 8 9 9 10 11 12 13 13 12 12 12 12 12 15 16 14 13 13 12 10 9 10 9 7 7 7 7 7 6 6 7 8 8 8 7 5 6 5 6 6 6 6 6 6 6 7 7 8 7 7 7 7 8 8 9 9 10 11 11 8
11 11 12 15 15 14 13 9 13 14 12 11 7 5 10 12 11 8 8 6 6 7 9 9 9 9 8 7 9 9 9 11 12 13 13 12 12 11 11 10 11 13 14 13 12 11 11 9 7 7 7 8 8 8 8 7 6 6 6 5 6 5 5 6 6 4 5 7 7 6 6 6 6 6 7 7 7 7 8 8 8 8 9 9 11 11 10
5 5 11 7 9 13 14 13 13 15 11 9 8 8 8 10 11 9 8 8 8 9 9 8 8 8 8 8 8 8 10 11 11 11 12 11 10 9 9 9 10 11 11 12 13 12 10 10 8 7 7 8 8 8 8 8 6 6 5 5 5 6 6 6 7 7 7 8 7 7 6 6 6 6 6 6 6 7 8 8 8 8 8 9 10 9 12
10 8 9 10 9 11 12 12 13 15 14 14 12 10 9 9 10 10 11 9 9 8 7 8 9 10 11 11 12 13 14 13 10 11 10 9 9 8 8 10 11 12 14 13 12 13 12 12 10 8 9 9 10 9 8 8 7 6 6 6 7 7 7 7 7 8 8 7 8 7 7 6 6 6 6 6 7 6 6 7 7 6 7 9 8 8 10
11 10 10 10 9 11 12 11 11 12 13 12 12 12 12 11 13 13 11 9 6 7 10 11 11 12 13 13 12 13 13 12 10 10 9 8 8 7 10 11 11 12 12 13 12 10 10 10 14 13 8 9 9 11 10 8 7 7 6 6 6 6 7 7 7 6 7 7 7 8 7 8 7 7 7 6 6 6 6 5 5 5 5 6 6 7 6
11 12 12 12 12 13 13 11 11 11 12 13 13 13 15 14 14 11 9 9 9 10 10 10 11 13 13 12 12 12 12 11 9 9 8 8 9 11 12 12 12 12 11 11 10 10 10 11 14 15 10 10 10 11 13 14 7 6 6 6 6 5 5 5 6 6 5 6 6 7 7 7 7 7 7 7 7 6 5 4 3 4 5 5 6 6 6
15 14 15 13 13 14 13 12 12 13 15 14 13 12 13 12 11 10 11 11 10 9 9 10 11 10 10 10 11 12 12 12 11 11 9 11 11 14 16 14 12 10 10 9 9 9 9 11 13 11 10 10 10 10 12 16 12 7 7 7 6 6 7 8 7 7 7 7 7 6 7 6 7 7 7 7 7 7 6 4 4 3 4 4 4 3 4
18 16 16 15 15 17 17 15 14 14 15 15 14 13 13 13 14 13 11 10 9 9 10 9 10 11 12 12 12 12 12 11 11 12 11 11 13 16 15 13 12 11 9 8 9 9 10 11 9 9 10 10 10 11 12 14 14 10 9 9 9 9 9 8 8 8 8 7 7 7 7 7 6 7 7 7 6 6 6 8 6 4 3 3 2 3 3
16 15 15 15 16 16 16 15 14 14 14 14 15 14 12 12 10 11 10 11 11 10 10 11 11 10 11 12 12 11 11 12 11 11 11 11 12 12 11 13 13 11 12 13 11 11 15 17 12 9 9 10 10 8 9 11 11 10 10 10 9 9 9 8 9 9 9 9 9 9 8 7 7 7 5 5 5 5 5 5 5 4 3 3 3 3 3
16 16 16 15 14 14 16 16 16 15 15 15 14 12 11 12 13 14 12 10 9 10 10 10 11 11 10 10 11 11 11 11 12 12 11 11 12 12 13 13 11 11 12 11 11 11 14 14 12 10 9 9 10 10 7 11 9 10 11 10 10 9 9 10 10 10 10 9 9 9 9 9 8 7 7 6 6 5 4 4 3 2 1 1 2 3 4
16 16 16 17 15 14 15 14 15 16 14 13 13 14 13 13 12 11 10 10 10 9 9 11 14 11 8 9 10 11 11 11 12 14 16 16 13 11 12 11 10 10 15 14 13 13 12 12 12 12 10 9 9 15 14 10 9 9 9 10 9 10 10 10 11 11 10 10 11 10 10 9 8 8 8 7 7 5 4 3 3 3 3 2 2 2 3
16 16 13 11 11 13 15 14 14 15 14 13 12 11 11 11 11 11 11 11 10 9 9 9 11 12 11 10 10 10 9 9 12 13 14 15 16 14 12 10 9 11 16 12 12 11 11 11 11 11 15 13 11 16 15 11 10 10 9 9 9 10 10 10 10 9 9 9 9 10 9 9 9 9 9 9 9 8 8 7 6 5 4 3 1 3 4
13 12 11 12 12 12 13 13 14 15 15 13 12 12 12 11 11 11 11 12 12 12 11 10 11 12 12 11 11 10 9 8 8 8 10 11 12 13 12 10 9 13 18 11 11 11 11 11 11 15 19 20 20 17 12 10 11 10 10 10 9 9 10 10 9 9 9 9 9 9 9 9 8 8 8 9 9 9 10 10 9 7 6 5 3 3 4
16 13 12 13 14 13 13 13 14 13 11 12 14 14 13 12 12 11 11 12 12 12 12 11 11 10 10 11 10 9 8 8 8 7 8 10 11 11 10 11 11 11 13 15 11 12 11 11 15 21 18 19 19 18 11 11 11 10 10 10 10 10 10 10 10 10 10 10 10 9 9 9 8 8 8 8 8 8 9 9 9 10 10 8 7 7 7
14 14 15 16 16 13 11 11 8 10 12 14 14 14 13 11 11 12 12 13 13 12 12 12 12 11 10 9 7 8 10 9 9 9 9 9 10 9 9 10 10 11 16 16 11 11 11 18 19 18 18 18 17 13 11 11 10 10 11 11 11 11 10 10 10 10 10 10 10 10 10 10 10 10 9 9 9 9 9 10 9 9 9 8 9 9 8
11 12 13 12 11 11 10 10 12 14 14 13 12 10 10 11 11 11 11 12 12 12 11 11 12 11 11 10 9 7 7 8 9 9 8 7 7 8 10 13 13 15 13 12 11 11 11 12 14 18 17 18 16 11 11 10 10 10 10 10 10 10 10 10 10 10 10 9 10 10 11 11 10 10 10 11 11 11 10 11 10 9 9 9 9 10 10
10 10 9 9 9 9 10 12 13 12 12 10 9 8 8 8 10 10 10 10 10 11 12 11 10 11 12 11 10 10 8 6 6 8 8 7 7 7 8 8 9 12 13 14 15 15 19 18 17 17 17 15 11 10 10 10 10 10 10 10 10 10 10 9 9 9 9 9 10 10 10 10 10 10 10 10 10 10 11 11 10 10 10 10 10 10 10
11 10 10 9 10 10 10 10 10 10 8 7 8 7 7 8 9 9 9 10 10 9 10 10 11 10 10 10 11 9 9 9 7 5 6 6 7 7 7 9 14 13 9 9 10 10 15 16 15 15 15 13 9 9 9 9 10 9 10 10 10 10 10 10 10 9 9 10 10 10 10 10 10 10 10 10 10 10 11 11 11 11 10 10 10 11 11
10 10 10 9 10 9 8 8 8 7 6 7 7 7 7 8 9 8 8 8 8 8 8 8 8 9 8 8 8 8 8 8 8 7 6 8 8 8 8 8 9 13 13 8 9 8 11 14 14 14 11 9 9 9 9 9 9 9 9 9 9 9 10 10 11 12 11 11 10 10 10 10 10 11 11 10 10 10 10 10 10 13 18 13 11 11 11
8 9 8 8 8 9 10 9 8 7 7 8 7 7 8 9 9 8 8 8 6 8 8 8 8 8 8 8 8 8 8 8 8 9 7 7 7 9 10 8 9 10 9 9 9 8 8 8 8 9 9 9 9 9 8 8 8 9 9 9 9 8 8 10 9 10 10 10 10 10 10 10 10 10 10 10 11 10 10 10 10 10 10 10 10 10 10
9 7 7 8 8 8 9 9 9 9 9 8 8 8 8 7 7 8 8 10 8 7 7 7 8 8 8 7 7 7 7 8 7 7 8 8 8 7 8 11 8 9 9 8 8 8 8 8 9 11 11 8 8 8 9 10 8 8 8 9 8 9 9 8 9 9 9 10 10 10 10 10 10 10 10 10 10 10 10 10 10 10 9 9 9 9 9
Wind_Direction
326 303 290 294 285 255 258 259 261 241 221 211 217 219 206 159 212 239 105 165 208 231 239 229 228 202 222 230 242 249 276 188 162 172 224 232 231 220 210 213 210 211 209 209 205 198 197 190 188 191 191 194 194 194 194 188 193 194 186 177 179 186 189 194 195 190 190 193 194 194 196 197 198 201 203 204 204 203 203 205 208 211 211 211 206 205 207
306 294 287 292 276 271 260 255 259 256 251 240 226 222 223 213 226 247 200 183 210 221 231 231 231 232 245 294 337 316 241 194 165 189 197 221 230 224 219 216 213 213 213 206 202 202 199 195 195 193 193 194 193 191 191 188 192 195 178 176 183 192 196 198 193 192 191 192 192 192 194 198 199 200 204 205 205 203 204 204 206 207 211 211 210 205 204
303 296 290 273 293 301 277 274 260 257 258 262 251 241 228 220 228 236 211 190 231 208 211 231 223 205 30 277 257 254 247 265 281 287 267 254 231 218 228 228 224 223 218 207 197 197 198 200 199 197 197 197 194 196 192 191 190 188 182 188 188 195 200 194 188 189 189 193 191 194 198 201 200 201 204 205 208 208 208 207 207 206 207 210 210 210 207
289 208 330 325 319 305 281 268 260 255 252 249 237 233 228 224 225 229 237 229 233 175 206 262 241 167 203 227 240 258 273 270 231 256 266 264 273 277 250 245 236 232 226 212 202 201 200 200 197 197 199 195 189 196 190 191 190 186 187 187 192 197 200 193 188 189 192 190 193 197 196 200 199 200 203 205 207 206 204 204 205 206 207 208 210 211 212
261 258 335 335 319 298 268 246 241 247 254 248 246 243 221 227 229 229 221 236 208 222 192 231 239 230 223 228 234 249 258 260 267 263 267 279 287 285 275 259 245 236 229 219 210 206 203 197 196 201 196 190 192 195 189 190 176 183 187 191 193 199 191 188 190 189 188 190 195 196 198 197 197 197 200 204 206 205 207 205 204 206 208 208 211 211 212
280 292 322 315 284 240 240 10 25 216 238 243 245 241 232 224 212 242 252 254 228 220 185 215 224 231 235 234 235 210 232 230 231 241 239 262 278 287 280 268 261 253 233 231 221 211 206 204 203 201 193 197 200 192 191 167 177 190 189 195 194 195 188 190 190 189 190 194 197 200 196 194 195 198 202 208 209 209 209 206 207 209 210 210 211 213 215
285 299 315 270 237 230 350 310 336 292 275 240 235 244 238 231 225 234 240 243 242 204 202 217 225 231 241 72 165 191 194 215 220 237 259 256 276 290 292 290 283 271 257 237 226 210 211 208 200 187 187 194 185 184 177 181 191 193 195 198 198 193 190 191 188 190 193 196 199 197 193 192 195 200 204 208 207 208 207 207 208 208 209 213 217 218 219
267 276 225 233 214 351 314 323 20 341 284 7 286 247 233 226 221 212 233 233 241 215 212 225 233 253 110 101 101 167 184 198 217 217 235 250 279 287 301 302 296 288 277 259 237 220 207 195 198 194 192 187 186 184 182 188 188 191 190 194 197 187 191 192 195 196 196 198 198 195 194 195 199 203 205 205 205 202 206 211 211 210 211 212 213 212 214
246 238 242 251 333 325 297 297 43 7 9 335 324 270 246 230 213 208 214 221 234 225 217 233 45 128 147 200 199 186 193 192 209 227 237 260 279 295 292 294 295 297 285 273 261 226 200 191 191 188 179 177 180 177 180 188 183 189 191 191 191 188 194 195 198 196 196 197 197 196 196 197 202 205 206 206 205 199 205 209 209 210 212 211 212 212 216
220 252 272 272 255 250 236 113 71 260 301 272 229 203 271 253 250 220 213 215 220 214 174 190 174 144 201 231 229 181 180 179 184 195 208 235 271 308 308 305 305 305 298 273 242 228 199 191 191 178 172 172 170 171 181 181 184 190 191 196 192 191 199 197 196 193 190 189 192 193 195 200 204 206 207 207 206 200 206 209 213 216 213 213 213 213 216
210 227 238 241 242 226 76 164 353 325 315 274 237 220 261 133 251 215 213 220 218 207 177 171 157 175 218 232 228 155 166 168 175 173 165 115 25 3 349 345 341 337 322 288 222 196 201 193 183 169 172 173 176 180 183 187 188 189 193 195 192 198 200 198 194 193 193 192 195 198 203 207 206 206 207 207 206 199 209 214 218 218 216 220 216 214 214
222 226 229 240 228 241 288 75 356 333 335 334 215 262 270 2 341 339 309 245 224 208 183 159 174 182 218 228 206 142 153 153 152 162 139 99 48 30 23 29 26 29 25 60 62 77 96 56 161 178 174 174 183 181 182 183 189 196 203 203 203 203 201 191 187 187 186 191 199 203 207 207 204 206 204 204 206 205 210 215 218 219 223 224 223 219 219
219 224 247 267 265 256 274 303 347 335 305 237 214 230 57 331 325 313 305 289 287 293 180 172 187 200 219 53 101 128 135 142 139 132 113 86 49 39 37 34 49 61 58 59 58 46 28 358 288 187 177 172 178 176 171 186 201 204 154 132 183 193 196 203 201 196 198 204 205 209 209 205 199 203 203 207 208 208 211 213 217 220 224 226 229 230 224
217 217 229 236 267 220 205 280 312 315 276 217 230 20 285 306 313 316 302 296 285 292 239 207 202 120 117 119 120 126 136 135 134 127 120 115 83 67 55 46 51 66 65 62 60 49 37 19 24 167 163 165 167 155 169 184 182 163 161 167 172 181 186 195 199 201 205 206 206 211 212 206 203 208 214 215 214 212 212 213 220 225 227 228 234 236 232
227 223 228 227 238 139 188 313 268 160 234 329 357 315 306 310 312 307 309 293 297 272 254 291 68 133 131 130 127 125 127 131 128 129 121 93 75 62 62 57 53 62 66 62 57 51 42 40 35 72 125 113 104 111 96 54 28 36 177 197 189 193 196 199 203 207 209 208 207 208 209 206 206 211 209 208 210 209 206 212 222 226 228 229 232 236 235
225 213 219 223 195 101 163 207 244 192 253 346 327 329 298 313 305 307 307 300 293 277 222 160 154 137 131 125 131 129 125 123 123 118 108 97 86 76 71 72 69 66 69 65 61 52 46 46 52 53 84 90 87 84 69 49 45 46 72 174 191 197 203 206 212 215 218 215 214 215 213 208 212 216 213 212 213 215 218 218 224 229 232 228 225 230 231
248 252 267 178 119 125 175 207 250 284 289 307 318 279 290 297 304 301 296 297 294 253 163 143 140 143 144 138 139 132 130 126 123 116 108 102 95 87 84 83 83 78 74 72 71 66 60 57 55 64 76 94 93 84 68 70 68 74 86 143 180 196 202 207 210 217 218 219 218 218 218 212 216 217 219 216 220 222 221 223 225 229 229 228 227 228 227
285 276 270 246 166 155 162 195 227 221 344 72 346 339 321 321 313 305 299 303 277 197 161 140 151 152 149 139 131 126 125 121 117 113 105 98 94 93 93 90 89 89 85 80 75 72 65 63 68 68 71 78 81 77 75 70 72 74 88 105 121 168 199 209 212 214 219 222 223 223 219 217 219 218 218 216 220 218 215 223 226 227 230 229 227 226 227
296 272 184 221 193 166 164 166 162 129 90 53 32 15 350 329 313 341 346 284 237 167 156 153 146 145 146 135 129 124 121 117 112 107 102 94 92 90 86 87 91 88 85 80 76 76 74 67 68 67 69 69 71 67 59 55 58 63 72 81 92 95 92 102 141 224 237 238 233 222 217 224 225 224 223 225 228 224 225 231 231 230 234 232 228 231 232
262 273 284 256 247 185 159 171 185 164 80 73 62 43 9 326 340 34 27 345 159 144 132 130 136 133 132 129 127 124 120 118 114 106 103 101 92 84 84 87 86 85 81 79 77 74 71 68 66 67 68 66 65 63 59 58 61 64 63 64 70 67 67 69 75 75 191 82 266 255 248 240 242 241 240 237 239 240 237 235 236 235 233 232 230 233 231
301 306 290 229 200 173 156 150 143 126 111 93 67 59 42 5 28 49 55 54 51 117 123 125 128 130 128 123 122 119 117 112 110 106 104 100 95 95 90 86 85 84 83 79 76 73 68 64 64 65 65 65 65 65 65 68 77 84 90 88 75 69 64 65 65 61 52 320 274 272 269 274 268 268 262 259 251 250 247 244 241 244 241 238 233 235 235
261 245 244 191 194 187 175 153 140 117 99 81 73 65 62 41 42 52 70 51 18 18 53 119 121 123 120 118 116 110 108 109 110 109 104 100 97 92 88 87 86 85 82 82 80 75 70 65 63 63 62 62 60 62 62 63 72 86 96 95 90 80 71 62 48 38 24 28 29 17 358 341 324 309 306 273 270 282 285 271 254 242 234 240 238 239 236
240 235 246 241 288 89 143 153 119 103 91 81 70 51 54 50 43 41 48 55 39 37 32 41 102 103 105 111 113 109 101 92 85 84 89 89 89 88 90 90 86 83 82 81 80 76 73 71 70 67 65 61 60 59 60 63 69 76 86 88 83 79 71 64 60 60 59 53 49 47 48 12 247 254 283 283 265 259 254 261 260 262 261 256 250 240 232
261 271 284 274 241 210 145 123 97 81 73 78 72 60 49 46 43 35 53 52 57 42 42 48 58 73 68 70 82 86 85 84 82 81 79 77 76 77 75 76 78 77 73 71 70 70 70 67 64 60 57 51 49 51 53 59 65 70 73 79 79 78 76 82 86 79 82 82 85 77 72 276 270 268 272 264 252 241 258 273 276 270 266 269 272 274 261
255 266 282 302 274 166 129 109 93 82 73 69 70 57 47 49 56 61 49 42 35 34 37 42 32 32 52 60 66 79 88 83 79 81 78 71 64 63 62 60 59 63 66 68 67 66 65 62 60 57 54 49 45 44 44 47 52 57 57 56 55 51 49 50 52 54 54 56 56 48 27 16 11 347 345 349 338 337 278 236 265 291 313 313 296 282 270
252 261 272 273 231 162 137 100 71 75 72 65 59 55 52 59 67 70 70 59 41 29 33 36 48 36 27 39 49 56 65 69 77 79 74 67 65 61 57 58 61 65 68 67 68 66 64 60 58 55 52 45 41 42 46 49 53 58 59 60 58 55 51 52 53 52 52 52 55 49 35 16 355 341 325 319 317 299 308 321 317 216 251 246 244 238 245
247 253 248 243 220 211 251 124 120 107 88 72 56 51 50 53 62 78 74 67 63 47 24 14 58 78 62 36 40 50 68 79 77 73 73 70 67 66 68 71 71 71 70 67 65 64 64 63 60 57 52 45 42 43 45 46 49 53 54 54 54 53 51 52 57 55 53 48 44 38 33 23 347 337 332 324 301 320 322 331 325 313 314 308 277 262 250
276 260 216 207 190 133 112 109 119 103 91 94 87 53 27 24 47 64 69 68 65 56 47 10 4 69 82 61 21 24 46 61 65 70 73 75 76 77 77 78 77 76 73 70 67 65 64 63 60 57 50 42 42 44 46 47 48 48 46 46 44 43 40 41 42 42 41 35 21 20 15 14 358 339 347 8 14 18 9 355 340 324 308 299 300 300 271
243 214 215 242 216 123 121 121 105 96 93 89 91 89 58 25 21 52 54 55 67 69 49 30 35 50 62 55 44 32 34 53 66 63 61 53 53 61 69 72 71 71 70 66 63 60 59 56 54 50 44 39 43 46 47 49 50 49 47 45 42 38 35 33 34 34 39 34 26 6 355 2 7 7 18 20 19 22 17 22 6 349 319 322 323 291 326
182 176 147 147 133 123 128 111 97 93 97 114 110 98 94 69 27 46 45 31 32 58 52 36 48 41 44 60 53 43 43 55 71 74 72 66 54 43 41 55 63 56 58 58 54 55 56 54 51 47 40 38 45 49 51 53 55 55 55 52 47 38 39 31 40 43 41 41 24 5 11 15 18 18 18 15 15 10 2 351 339 329 333 5 16 37 17
122 131 141 135 120 107 95 97 97 95 99 113 117 112 100 97 84 64 55 36 34 53 56 67 69 68 67 71 78 82 79 67 63 68 67 62 52 47 45 49 59 59 56 52 50 51 54 56 56 53 46 41 42 45 53 56 58 57 57 56 56 53 21 14 50 45 51 43 34 22 17 21 29 28 24 19 19 18 18 17 12 2 5 12 14 15 39
110 126 124 113 108 100 94 86 86 97 108 114 95 98 104 95 79 70 68 55 56 69 64 60 70 75 75 79 81 78 73 70 67 65 63 59 53 51 51 56 64 64 60 55 50 47 44 45 50 44 35 36 37 40 45 44 50 55 55 55 52 53 38 342 44 56 56 59 52 42 24 20 29 32 27 23 22 28 36 38 30 23 16 9 5 357 4
118 121 112 111 103 98 102 98 104 108 110 103 86 79 98 99 95 89 83 74 72 76 80 79 78 78 73 61 69 69 66 64 63 61 56 51 46 42 45 51 55 59 58 54 51 47 42 37 34 28 29 34 42 44 43 46 41 44 40 37 48 47 47 40 6 28 49 47 48 42 34 30 32 43 39 25 20 23 37 42 34 27 18 16 12 13 2
103 129 129 113 119 124 122 112 110 109 104 101 101 96 85 90 101 98 89 86 79 75 73 74 72 70 66 62 56 56 65 64 53 49 49 46 43 40 44 53 59 58 54 50 53 49 42 38 34 31 30 35 37 39 36 40 48 47 39 37 35 30 30 30 25 26 27 33 37 44 42 39 33 38 49 48 38 28 37 35 41 28 28 22 24 22 21
94 79 76 90 91 103 111 115 114 117 115 111 102 91 92 96 97 95 89 79 70 72 68 60 60 63 64 63 61 60 58 58 55 52 51 49 48 44 48 54 56 55 52 44 43 49 42 38 36 44 46 40 38 33 31 30 39 44 40 43 43 39 34 36 35 31 27 22 24 31 32 35 30 40 40 61 60 57 38 44 34 36 35 31 22 21 23
82 82 78 83 84 92 91 92 92 99 107 107 105 104 99 95 94 89 84 79 73 63 66 67 66 63 58 56 58 60 62 60 59 58 56 51 47 43 45 45 45 49 48 46 31 30 29 31 29 30 39 39 37 37 27 25 40 41 40 43 51 47 43 38 38 39 34 25 24 18 26 19 31 26 32 38 69 78 69 50 44 27 42 50 41 35 33
59 79 83 79 77 76 78 76 81 82 86 90 89 91 89 87 87 86 77 68 61 56 59 65 67 66 66 65 68 68 65 63 59 56 51 50 51 51 49 48 43 42 42 43 23 24 30 29 26 33 39 44 39 37 30 21 33 36 39 39 44 53 52 48 38 43 42 39 29 23 13 20 21 30 25 29 29 45 77 96 76 60 34 33 49 51 51
50 55 66 70 69 72 69 69 72 72 73 71 71 71 76 74 64 60 65 67 61 62 64 70 71 70 68 66 65 65 66 65 62 57 52 55 58 61 56 52 45 37 38 32 20 24 25 20 22 34 41 44 40 36 30 25 23 28 37 31 30 31 37 42 40 36 33 36 34 35 28 23 21 16 22 20 22 17 21 51 74 72 78 58 44 37 63
43 46 51 56 64 66 67 66 67 68 69 69 68 63 64 72 75 72 65 61 64 67 71 68 65 63 59 58 57 52 52 53 55 55 51 51 57 60 58 50 47 41 34 20 26 28 21 22 29 35 37 36 39 42 34 37 43 49 47 44 40 36 36 34 36 37 41 36 37 33 37 34 30 32 25 24 19 19 19 12 13 49 67 80 74 57 48
47 46 46 53 59 63 68 65 61 61 60 59 64 64 61 64 65 73 70 66 56 55 61 61 62 62 57 55 53 52 48 48 46 43 42 45 51 57 56 42 29 23 22 25 29 29 24 24 29 35 35 34 31 37 36 35 45 52 47 47 41 42 36 36 35 38 37 39 39 38 34 35 40 44 44 34 35 34 25 13 7 10 29 51 66 59 54
51 52 53 56 55 57 61 61 57 53 54 57 58 60 59 64 63 60 51 52 53 52 54 57 66 64 60 61 62 60 55 51 50 46 42 51 55 55 53 48 25 22 24 29 30 29 29 28 27 27 32 33 34 21 25 30 40 53 55 52 49 44 44 41 43 39 37 36 37 36 36 35 37 36 35 42 43 34 38 44 28 13 315 56 82 80 59
57 58 55 54 52 55 59 61 63 58 52 49 53 57 58 61 67 69 65 61 56 48 51 60 66 67 64 63 64 61 58 57 59 58 56 56 53 54 56 49 27 28 26 30 31 33 30 31 29 29 27 31 37 33 37 36 37 40 43 43 42 43 42 45 44 44 43 46 47 44 39 34 28 28 27 30 45 52 35 37 24 20 21 27 64 80 105
55 55 55 56 55 59 64 64 65 64 60 50 46 47 49 51 57 60 58 56 54 55 55 51 51 48 48 49 51 50 46 49 58 61 63 60 57 54 57 54 39 32 33 40 38 41 36 34 33 36 37 42 41 41 41 40 38 40 40 40 42 41 41 37 37 34 34 33 35 39 40 36 35 33 28 30 31 30 30 31 27 15 24 6 23 65 54
57 55 47 53 56 58 61 62 64 63 62 53 48 48 45 44 42 47 52 53 49 45 41 40 45 49 47 47 51 47 34 27 33 49 63 62 55 47 45 48 46 40 40 44 44 43 40 36 36 36 39 42 46 47 49 45 46 43 43 42 43 45 43 42 39 38 36 34 32 35 37 37 34 33 35 34 33 37 36 36 37 34 30 33 40 76 63
43 48 51 56 56 53 53 56 61 63 64 65 55 46 42 44 43 42 46 51 50 44 40 37 35 34 41 48 50 48 44 38 27 23 47 56 58 49 37 45 46 46 44 47 52 48 44 40 39 40 40 40 43 48 50 50 48 49 48 49 49 50 50 48 46 44 42 41 41 39 40 41 37 32 31 32 31 32 30 30 33 33 37 35 31 30 31
40 40 44 50 50 50 53 61 63 69 65 61 57 47 42 45 49 47 45 50 52 47 46 45 42 34 25 29 41 51 55 47 37 34 43 56 61 57 42 46 49 51 51 51 50 50 46 41 39 39 41 43 45 48 48 46 48 49 49 50 50 52 53 53 52 50 47 46 42 41 42 43 42 37 33 33 31 33 32 28 36 32 26 22 23 27 30
40 43 44 47 50 48 43 46 50 52 54 55 52 46 37 42 49 51 49 50 53 52 48 47 47 41 38 35 30 27 39 55 49 29 25 28 41 47 47 48 53 56 59 56 54 48 45 40 38 37 38 42 45 49 47 47 46 46 46 45 44 44 45 47 49 50 49 46 45 49 50 50 48 45 41 37 35 31 29 32 36 32 28 32 36 32 29
55 55 50 48 48 40 46 52 53 51 50 56 61 57 49 47 49 49 46 47 51 53 53 49 45 42 39 39 40 38 25 17 59 39 11 20 26 36 38 41 41 52 62 65 60 50 43 41 38 38 39 42 46 47 47 46 46 43 42 41 40 38 38 37 39 41 41 40 41 44 46 47 47 47 44 43 41 37 33 31 30 29 30 34 34 31 29
48 51 48 47 46 42 45 52 57 57 52 52 57 54 45 50 52 45 42 41 45 49 50 48 45 41 39 36 36 36 36 35 41 39 11 20 26 30 29 33 33 37 52 62 62 60 42 38 36 36 42 45 46 47 47 48 46 46 45 42 42 39 37 37 35 36 42 42 41 42 41 42 40 41 43 44 43 42 41 39 34 33 29 30 35 33 32
47 48 47 43 42 39 40 51 52 49 46 47 49 44 45 52 54 38 32 38 44 48 51 46 43 38 34 33 31 31 30 31 33 33 32 30 34 34 33 35 36 37 40 46 50 50 44 42 38 38 42 48 47 46 47 47 48 46 47 47 49 50 43 42 43 41 44 46 45 43 43 42 41 41 44 45 45 45 45 43 38 30 30 36 38 37 38
48 55 57 59 61 60 57 55 52 46 47 45 46 48 53 59 60 48 38 28 33 43 48 47 42 35 33 31 30 28 25 27 31 30 30 32 33 38 36 37 37 34 34 38 40 39 41 39 37 34 41 47 49 47 43 44 49 48 45 47 45 45 47 44 45 45 44 46 48 46 45 45 44 43 45 44 44 45 46 46 44 42 38 36 34 33 33
53 56 62 61 62 60 57 53 48 47 47 46 46 49 54 59 63 57 47 35 39 42 37 44 44 31 27 30 30 29 26 26 26 29 32 30 32 34 36 36 37 34 33 35 37 36 38 38 38 39 39 44 45 47 45 44 47 48 49 49 51 51 46 46 48 49 48 47 50 52 48 46 46 48 47 45 44 45 45 45 46 46 45 42 38 37 34